Location: Cenicientos
(40.2646°N, 4.4668°W)
Time: 01:08:34
(UTC+00:00)

Daily predictions for brighter satellites

Satellite Brightness Start Highest point End
(mag) Time Altitude Azimuth Time Altitude Azimuth Time Altitude Azimuth
Lacrosse 4 Rocket 4.1 00:13:01 16° NNE 00:13:01 16° NNE 00:13:57 10° NNE
Cosmos 2233 Rocket 4.3 00:10:46 63° NNW 00:10:46 63° NNW 00:16:12 10° N
Cosmos 2219 Rocket 3.5 00:06:22 10° N 00:11:13 33° NE 00:11:13 33° NE
Cosmos 2322 Rocket 3.6 00:14:28 10° NW 00:17:43 30° WNW 00:17:43 30° WNW
COSMOS 2428 3.7 00:24:16 10° N 00:29:12 40° NE 00:29:12 40° NE
CENTAUR R/B 4.3 00:27:24 17° W 00:30:50 27° NW 00:36:44 10° NNE
Cosmos 2360 Rocket 3.4 00:29:58 10° NNW 00:33:24 36° NW 00:33:24 36° NW
CZ-2D R/B 4.4 00:35:48 10° NE 00:38:05 15° E 00:38:05 15° E
Cosmos 2297 Rocket 4.1 00:45:36 19° ENE 00:45:36 19° ENE 00:48:11 10° NE
Cosmos 2333 Rocket 2.9 00:43:47 10° NNW 00:48:11 52° N 00:48:11 52° N
Cosmos 2237 Rocket 3.8 00:53:48 10° N 00:58:38 28° NE 00:59:51 26° ENE
Timation 2 Rocket 4.2 01:14:34 61° ENE 01:14:34 61° ENE 01:19:42 10° NNE
SJ 16-02 4.0 01:25:10 13° ENE 01:25:10 13° ENE 01:26:26 10° ENE
Cosmos 2227 Rocket 3.0 01:33:34 44° E 01:33:34 44° E 01:38:10 10° NE
Resurs 1-4 Rocket 2.7 01:34:58 10° NNE 01:39:24 50° ENE 01:39:24 50° ENE
SL-19 R/B 4.4 01:37:58 10° NNE 01:43:22 70° NNW 01:43:22 70° NNW
ATLAS 3B R/B 4.4 01:40:56 17° WNW 01:44:01 23° NW 01:49:08 10° NNE
NOSS 0 Rocket 3.9 01:38:56 10° NNW 01:44:40 76° NW 01:44:40 76° NW
Lacrosse 4 Rocket 4.1 01:49:19 13° NW 01:49:19 13° NW 01:50:55 10° NNW
Cosmos 1634 Rocket 3.9 01:50:26 82° ESE 01:50:29 82° E 01:56:45 10° N
Cosmos 2026 Rocket 3.9 01:44:48 10° N 01:50:53 72° E 01:51:08 71° ESE
USA 215 3.3 01:44:58 10° NE 01:51:27 61° SE 01:51:28 61° SE
Cosmos 1627 Rocket 4.4 01:47:18 10° N 01:53:29 80° E 01:53:40 79° ESE
Cosmos 2219 Rocket 3.8 01:50:18 10° NW 01:52:54 24° WNW 01:52:54 24° WNW
IRAS Rocket 4.2 01:57:00 79° NNE 01:57:00 79° NNE 02:02:20 10° NNW
SL-4 R/B 4.4 01:58:02 16° N 01:58:42 17° NNE 02:01:01 10° ENE
Cosmos 2142 Rocket 4.5 02:00:56 68° SE 02:01:31 73° E 02:07:54 10° N
SL-16 R/B 3.6 02:02:10 10° N 02:07:24 36° ENE 02:12:33 10° SE
Meteor 2-5 Rocket 4.2 02:05:18 10° N 02:10:51 55° ENE 02:11:59 46° ESE
COSMOS 2428 4.4 02:08:57 10° NW 02:11:10 20° WNW 02:11:10 20° WNW
SL-16 R/B 2.4 02:13:43 74° SW 02:14:05 77° WSW 02:20:23 10° NNW
ARIANE 5 R/B 4.3 02:12:06 10° NE 02:16:19 24° E 02:18:02 20° ESE
NOSS 3-1 (C) 4.1 02:17:24 34° ESE 02:17:51 34° ESE 02:23:08 10° NE
NPP 3.5 02:13:01 10° NNE 02:18:22 81° WNW 02:18:22 81° WNW
CZ-2D R/B 2.2 02:14:00 10° N 02:19:24 67° WNW 02:19:24 67° WNW
AQUA 3.9 02:20:05 10° NNE 02:24:26 73° N 02:24:26 73° N
Cosmos 1766 4.4 02:26:32 40° N 02:26:32 40° N 02:29:08 10° N
Cosmos 2263 Rocket 4.3 02:23:53 13° SE 02:26:27 17° E 02:29:54 10° ENE
Cosmos 2297 Rocket 2.5 02:27:24 51° WNW 02:27:38 51° WNW 02:33:09 10° NNE
ADEOS II 2.4 02:22:30 10° NNE 02:27:42 58° E 02:28:23 54° SE
Meteor 1-22 Rocket 4.1 02:27:12 62° SE 02:27:43 67° E 02:32:58 10° NNE
Cosmos 2219 3.7 02:27:45 43° WNW 02:28:00 43° WNW 02:33:22 10° N
Cosmos 1428 Rocket 4.5 02:24:03 10° NNW 02:30:11 60° W 02:30:33 59° WSW
IRS-1D 3.4 02:26:28 10° NNE 02:31:32 75° ESE 02:31:54 71° SE
Cosmos 1980 4.3 02:27:24 10° NW 02:31:38 42° WNW 02:31:38 42° WNW
Okean 1 Rocket 4.1 02:38:14 36° NW 02:38:14 36° NW 02:41:20 10° N
Cosmos 1626 3.0 02:36:06 10° N 02:38:56 47° NNE 02:38:56 47° NNE
Cosmos 1655 Rocket 4.0 02:35:27 10° N 02:41:44 76° E 02:44:27 36° SSE
Cosmos 1470 3.7 02:41:43 42° E 02:41:49 42° E 02:45:35 10° NNE
Cosmos 2237 Rocket 2.9 02:37:32 10° NW 02:41:37 37° WNW 02:41:37 37° WNW
CZ-4B R/B 3.2 02:40:03 10° N 02:44:47 70° WNW 02:44:51 70° W
SL-08 R/B 4.3 02:43:56 21° SE 02:47:00 48° ENE 02:51:46 10° N
Cosmos 923 Rocket 3.9 02:44:10 10° NNW 02:49:31 90° N 02:51:06 47° SSE
USA 229 DEB 3.9 02:48:34 40° S 02:50:43 57° ESE 02:57:19 10° NE
USA 229 3.9 02:48:40 39° S 02:50:48 57° ESE 02:57:22 10° NE
Cosmos 2098 Rocket 3.9 02:50:52 10° N 02:55:50 70° E 02:59:34 24° SSE
Cosmos 158 Rocket 4.1 02:51:55 10° NNW 02:57:19 81° ENE 03:00:33 25° SSE
NOSS 3-1 (A) 3.9 03:00:07 32° SSE 03:02:02 45° ESE 03:07:43 10° NE
SJ 16-02 1.7 03:02:10 48° WNW 03:02:11 48° WNW 03:06:29 10° N
ERBS 3.0 03:00:07 10° NW 03:03:33 52° ENE 03:06:34 10° ESE
SL-14 R/B 3.5 03:00:27 10° NNW 03:03:48 56° NW 03:03:48 56° NW
SL-23 DEB 4.3 03:02:31 10° NW 03:09:09 82° NE 03:13:01 10° ESE
Meteor 2-19 Rocket 4.4 03:04:02 10° NNW 03:10:07 63° W 03:12:28 37° SSW
Cosmos 1455 Rocket 3.0 03:11:32 60° WSW 03:12:03 65° W 03:16:28 10° N
Cosmos 1758 3.2 03:13:24 62° S 03:14:03 88° E 03:18:06 10° N
DNEPR-1 R/B 3.9 03:09:34 10° NW 03:14:50 51° WSW 03:15:16 49° SW
Cosmos 1626 Rocket 4.4 03:11:51 10° N 03:16:03 47° E 03:19:53 12° SSE
IRS-P3 4.1 03:10:51 10° N 03:16:10 66° WNW 03:17:57 41° SW
Cosmos 2227 Rocket 3.5 03:15:24 23° W 03:17:01 26° NW 03:21:42 10° N
Resurs 1-4 Rocket 3.7 03:15:54 10° NNW 03:19:31 19° WNW 03:20:28 18° WNW
Spot 4 Rocket 4.3 03:14:54 10° NNE 03:20:03 66° ESE 03:23:00 26° S
Cosmos 1892 Rocket 3.9 03:18:42 10° NNW 03:22:57 44° W 03:23:15 43° WSW
Cosmos 1461 3.4 03:23:26 41° W 03:24:22 48° NW 03:28:45 10° NNE
SeaSat 1 3.5 03:19:49 10° NE 03:24:26 38° ESE 03:27:43 17° S
CZ-2C R/B 3.7 03:24:18 10° NNE 03:28:01 45° E 03:30:09 22° SSE
Cosmos 2227 4.5 03:24:45 26° S 03:28:03 66° ESE 03:33:47 10° NNE
CZ-2D R/B 3.3 03:25:37 10° NNE 03:29:41 84° ESE 03:31:10 38° S
ATLAS CENTAUR R/B 4.1 03:28:18 10° SE 03:30:00 12° ESE 03:31:38 10° E
Cosmos 1340 Rocket 2.9 03:29:56 47° WSW 03:30:36 54° WNW 03:34:31 10° N
ATLAS 3B CENTAUR R/B 3.7 03:27:04 26° SW 03:31:34 35° SSW 03:37:07 10° SE
USA 215 4.0 03:28:10 10° NE 03:34:17 44° NNW 03:38:49 18° W
ERS-2 3.9 03:31:20 10° SE 03:34:36 33° ENE 03:37:55 10° N
Cosmos 1953 2.3 03:35:03 29° S 03:37:00 80° E 03:41:02 10° N
Meteor 2-21 4.4 03:31:55 10° N 03:37:59 85° E 03:44:05 10° S
SL-4 R/B 1.9 03:35:25 10° NW 03:38:48 65° NE 03:42:11 10° ESE
Cosmos 1726 2.0 03:38:38 39° SSW 03:39:56 81° W 03:43:38 10° N
Cosmos 2112 Rocket 4.3 03:38:41 10° NNW 03:43:38 44° WSW 03:46:47 20° SSW
H-2A R/B 2.2 03:44:48 10° SSE 03:48:54 70° ENE 03:53:00 10° N
Cosmos 1937 Rocket 3.9 03:47:07 27° SW 03:49:41 47° WNW 03:54:49 10° N
SL-16 R/B 2.9 03:46:26 10° NW 03:51:24 32° WSW 03:54:15 21° SSW
ARIANE 5 R/B 3.2 03:50:39 10° N 03:55:31 41° WNW 03:58:22 22° SW
CZ-4C R/B 2.7 03:55:05 10° SSE 03:58:15 89° ENE 04:01:32 10° NNW
SL-16 R/B 4.4 03:58:49 10° W 03:58:49 10° W 03:59:10 10° W
IDEFIX/ARIANE 42P 2.7 03:53:54 10° N 03:58:59 58° WNW 04:02:43 18° SSW
NOSS 2-3 (E) 3.8 03:57:58 25° SW 04:00:18 59° NW 04:05:05 10° NNE
Cosmos 1680 Rocket 4.5 03:56:57 10° NW 04:01:12 26° W 04:03:10 20° SW
CZ-4B R/B 4.2 03:58:54 10° ESE 04:01:28 21° ENE 04:04:00 10° NNE
USA 267 3.2 03:58:13 10° SE 04:04:46 86° SW 04:11:21 10° NW
ADEOS II 3.7 04:03:25 10° NNW 04:06:54 18° WNW 04:09:19 14° W
NOSS 3-1 (C) 4.2 04:04:48 17° WSW 04:08:32 37° NW 04:14:21 10° NNE
Cosmos 2263 Rocket 2.3 04:05:36 18° SW 04:09:46 63° WNW 04:15:19 10° NNE
Cosmos 1703 3.4 04:07:51 10° N 04:11:50 76° E 04:15:46 10° SSE
Cosmos 372 Rocket 4.1 04:08:13 16° SSW 04:12:17 63° WNW 04:17:29 10° NNE
Cosmos 1553 Rocket 3.9 04:06:23 10° S 04:12:27 89° E 04:18:34 10° N
COSMOS 2441 4.3 04:09:02 10° N 04:13:48 69° WNW 04:18:32 10° SSW
OAO 3 Rocket 4.0 04:15:36 17° SW 04:18:57 37° SSE 04:23:30 10° E
Cosmos 1602 Rocket 4.0 04:16:46 10° NNW 04:20:51 40° W 04:24:54 10° SSW
Cosmos 1606 Rocket 3.8 04:16:41 10° S 04:21:09 77° E 04:25:38 10° N
Aureole 3 4.3 04:16:49 10° S 04:21:38 77° E 04:27:50 10° N
Cosmos 1300 4.2 04:20:01 10° SSE 04:23:32 37° E 04:27:04 10° NNE
NOSS 2-3 (D) 4.4 04:21:04 15° WSW 04:24:12 40° NW 04:28:47 10° NNE
Cosmos 1745 Rocket 4.3 04:19:01 10° N 04:25:20 74° E 04:31:32 10° SSE
Cosmos 1125 Rocket 3.8 04:20:16 10° S 04:25:26 72° ESE 04:30:41 10° NNE
CZ-2C R/B 2.3 04:21:16 10° NNE 04:25:52 82° ESE 04:30:28 10° SSW
Cosmos 1603 3.8 04:25:33 10° NNW 04:31:10 58° WSW 04:36:44 10° S
Meteor 2-8 Rocket 4.5 04:26:12 10° SSW 04:32:20 71° W 04:38:28 10° N
Cosmos 1484 Rocket 4.4 04:31:44 10° NNE 04:35:08 33° E 04:38:30 10° SSE
Cosmos 1844 Rocket 3.8 04:31:12 10° S 04:36:27 44° ESE 04:41:43 10° NE
Cosmos 1726 Rocket 3.6 04:34:40 10° S 04:39:06 85° W 04:43:36 10° N
ERBS 4.2 04:38:01 10° W 04:39:13 12° WSW 04:40:28 10° SW
S3M 4.1 04:33:03 10° S 04:39:24 79° W 04:45:50 10° N
Cosmos 2084 3.7 04:35:26 10° SSW 04:39:47 71° ESE 04:44:12 10° NE
Cosmos 2298 Rocket 4.5 04:38:00 10° SW 04:43:06 47° WNW 04:48:14 10° N
ALOS 3.3 04:43:41 10° NNE 04:48:13 48° E 04:52:43 10° S
Cosmos 1689 Rocket 3.9 04:48:19 10° SE 04:51:02 37° ENE 04:53:45 10° N
PSLV R/B 4.2 04:48:04 10° N 04:52:11 40° WNW 04:56:16 10° SW
NOSS 3-1 (A) 4.4 04:48:10 10° WSW 04:53:04 31° NW 04:58:40 10° NNE
ADEOS Rocket 3.8 04:48:05 10° SSE 04:55:33 80° ENE 05:03:23 10° N
